星链-30353 (STARLINK-30353 )

导读 | 星芒AI

STARLINK-30353 是 SpaceX 星链计划中的一颗低轨通信卫星,属于第 11 批星链卫星(Batch 11)。该卫星于 2023 年 10 月 由猎鹰 9 号火箭发射入轨,旨在为全球提供高速互联网服务。它运行在约 550 公里的轨道高度,设计寿命约 5 至 7 年。该卫星采用先进的相控阵天线和激光通信技术,支持高速、低延迟的全球网络连接。星链计划最终目标是部署数万颗卫星,构建覆盖全球的宽带通信系统。

基本信息
目录编号:
58113
目录名称:
STARLINK-30353
国际标识:
2023-161S
轨道中心:
EARTH
卫星名称:
星链-30353
卫星全名:
星链-30353 (STARLINK-30353 )
卫星状态:
在轨 (已飞行740 天)
发射日期:
2023-10-21 UTC
国别 :
美国 (US)
星等 :
--
轨道信息
数据来源 国际轨道数据
星历时间: 2025-10-30T00:48:55+0800
1天前
查看轨道信息
半长轴: 6853.374km
偏心率: 0.0001358
轨道倾角: 53.158°
近地点辐角 83.031°
升交点赤经 54.173°
平近点角 277.084°
近地点: 474.308km
远地点: 476.17km
周期: 94.106分钟
每日圈数: 15.301927
详细信息
固有亮度:
5
最大亮度:
0.3
卫星平台:
Starlink v2.0 mini
覆盖范围:
全球
运营商:
太空探索技术公司
运营商所在国:
美国
制造商(研发单位):
太空探索技术公司
制造商所在国:
美国
使用方式:
暂无
卫星简介
星链(Starlink)计划是由太空探索技术公司(SpaceX)提出的一个巨型低轨卫星互联网星座项目,计划在2019年至2024年间在太空搭建由约1.2万颗卫星组成的“星链”网络,其中1584颗将部署在地球上空550千米处的近地轨道,并从2020年开始工作。该卫星仍在工作。
2D轨道图
3D轨道图
轨道高度分析图
轨道倾角分析图
轨道综合分析图
查看轨道综合分析图